Year,Month,Day,Hour,Minute,Value (Times are PST for temperature in C)
2014,09,17,10,13,16.10
2014,09,17,10,14,16.10
2014,09,17,10,15,16.10
2014,09,17,10,16,16.10
2014,09,17,10,17,16.20
2014,09,17,10,18,16.20
2014,09,17,10,19,16.20
2014,09,17,10,20,16.30
2014,09,17,10,21,16.30
2014,09,17,10,22,16.30
2014,09,17,10,23,16.30
2014,09,17,10,24,16.40
2014,09,17,10,25,16.40
2014,09,17,10,26,16.40
2014,09,17,10,27,16.60
2014,09,17,10,28,16.60
2014,09,17,10,29,16.60
2014,09,17,10,30,16.60
2014,09,17,10,31,16.60
2014,09,17,10,32,16.70
2014,09,17,10,33,16.70
2014,09,17,10,34,16.70
2014,09,17,10,35,16.70
2014,09,17,10,36,16.70
2014,09,17,10,37,16.70
2014,09,17,10,38,16.70
2014,09,17,10,39,16.70
2014,09,17,10,40,16.70
2014,09,17,10,41,16.70
2014,09,17,10,42,16.70
2014,09,17,10,43,16.70
2014,09,17,10,44,16.70
2014,09,17,10,45,16.70
2014,09,17,10,46,16.80
2014,09,17,10,47,16.90
2014,09,17,10,48,16.90
2014,09,17,10,49,16.90
2014,09,17,10,50,16.90
2014,09,17,10,51,17.00
2014,09,17,10,52,17.00
2014,09,17,10,53,17.00
2014,09,17,10,54,17.00
2014,09,17,10,55,17.10
2014,09,17,10,56,17.10
2014,09,17,10,57,17.10
2014,09,17,10,58,17.20
2014,09,17,10,59,17.20
2014,09,17,11,00,17.20
2014,09,17,11,01,17.30
2014,09,17,11,02,17.30
2014,09,17,11,03,17.30
2014,09,17,11,04,17.30
2014,09,17,11,05,17.30
2014,09,17,11,06,17.30
2014,09,17,11,07,17.30
2014,09,17,11,08,17.30
2014,09,17,11,09,17.30
2014,09,17,11,10,17.30
2014,09,17,11,11,17.30
2014,09,17,11,12,17.30
2014,09,17,11,13,17.30
2014,09,17,11,14,17.30
2014,09,17,11,15,17.30
2014,09,17,11,16,17.30
2014,09,17,11,17,17.30
2014,09,17,11,18,17.30
2014,09,17,11,19,17.30
2014,09,17,11,20,17.30
2014,09,17,11,21,17.30
2014,09,17,11,22,17.30
2014,09,17,11,23,17.40
2014,09,17,11,24,17.40
2014,09,17,11,25,17.40
2014,09,17,11,26,17.50
2014,09,17,11,27,17.50
2014,09,17,11,28,17.50
2014,09,17,11,29,17.60
2014,09,17,11,30,17.60
2014,09,17,11,31,17.60
2014,09,17,11,32,17.60
2014,09,17,11,33,17.70
2014,09,17,11,34,17.70
2014,09,17,11,35,17.70
2014,09,17,11,36,17.70
2014,09,17,11,37,17.80
2014,09,17,11,38,17.80
2014,09,17,11,39,17.80
2014,09,17,11,40,17.90
2014,09,17,11,41,17.90
2014,09,17,11,42,17.90
2014,09,17,11,43,17.90
2014,09,17,11,44,17.90
2014,09,17,11,45,17.90
2014,09,17,11,46,17.90
2014,09,17,11,47,17.90
2014,09,17,11,48,17.90
2014,09,17,11,49,17.90
2014,09,17,11,50,17.90
2014,09,17,11,51,17.90
2014,09,17,11,52,17.90
2014,09,17,11,53,17.80
2014,09,17,11,54,17.80
2014,09,17,11,55,17.80
2014,09,17,11,56,17.80
2014,09,17,11,57,17.80
2014,09,17,11,58,17.80
2014,09,17,11,59,17.80
2014,09,17,12,00,17.80
2014,09,17,12,01,17.90
2014,09,17,12,02,17.90
2014,09,17,12,03,17.90
2014,09,17,12,04,17.90
2014,09,17,12,05,17.90
2014,09,17,12,06,17.90
2014,09,17,12,07,17.90
2014,09,17,12,08,17.90
2014,09,17,12,09,18.10
2014,09,17,12,10,18.10
2014,09,17,12,11,18.10
2014,09,17,12,12,18.10
2014,09,17,12,13,18.10
2014,09,17,12,14,18.10
2014,09,17,12,15,18.20
2014,09,17,12,16,18.20
2014,09,17,12,17,18.20
2014,09,17,12,18,18.20
2014,09,17,12,19,18.20
2014,09,17,12,20,18.20
2014,09,17,12,21,18.20
2014,09,17,12,22,18.20
2014,09,17,12,23,18.20
2014,09,17,12,24,18.20
2014,09,17,12,25,18.20
2014,09,17,12,26,18.20
2014,09,17,12,27,18.20
2014,09,17,12,28,18.20
2014,09,17,12,29,18.30
2014,09,17,12,30,18.30
2014,09,17,12,31,18.30
2014,09,17,12,32,18.40
2014,09,17,12,33,18.40
2014,09,17,12,34,18.30
2014,09,17,12,35,18.30
2014,09,17,12,36,18.30
2014,09,17,12,37,18.30
2014,09,17,12,38,18.40
2014,09,17,12,39,18.40
2014,09,17,12,40,18.40
2014,09,17,12,41,18.50
2014,09,17,12,42,18.60
2014,09,17,12,43,18.60
2014,09,17,12,44,18.70
2014,09,17,12,45,18.80
2014,09,17,12,46,18.80
2014,09,17,12,47,18.90
2014,09,17,12,48,18.90
2014,09,17,12,49,18.90
2014,09,17,12,50,19.10
2014,09,17,12,51,19.10
2014,09,17,12,52,19.10
2014,09,17,12,53,19.10
2014,09,17,12,54,19.10
2014,09,17,12,55,19.20
2014,09,17,12,56,19.20
2014,09,17,12,57,19.20
2014,09,17,12,58,19.30
2014,09,17,12,59,19.30
2014,09,17,13,00,19.30
2014,09,17,13,01,19.30
2014,09,17,13,02,19.30
2014,09,17,13,03,19.30
2014,09,17,13,04,19.30
2014,09,17,13,05,19.30
2014,09,17,13,06,19.30
2014,09,17,13,07,19.20
2014,09,17,13,08,19.20
2014,09,17,13,09,19.30
2014,09,17,13,10,19.30
2014,09,17,13,11,19.30
2014,09,17,13,12,19.30
2014,09,17,13,13,19.30
2014,09,17,13,14,19.30
2014,09,17,13,15,19.30
2014,09,17,13,16,19.30
2014,09,17,13,17,19.30
2014,09,17,13,18,19.40
2014,09,17,13,19,19.40
2014,09,17,13,20,19.40
2014,09,17,13,21,19.40
2014,09,17,13,22,19.40
2014,09,17,13,23,19.30
2014,09,17,13,24,19.30
2014,09,17,13,25,19.30
2014,09,17,13,26,19.30
2014,09,17,13,27,19.20
2014,09,17,13,28,19.30
2014,09,17,13,29,19.30
2014,09,17,13,30,19.30
2014,09,17,13,31,19.30
2014,09,17,13,32,19.30
2014,09,17,13,33,19.30
2014,09,17,13,34,19.30
2014,09,17,13,35,19.40
2014,09,17,13,36,19.40
2014,09,17,13,37,19.40
2014,09,17,13,38,19.40
2014,09,17,13,39,19.40
2014,09,17,13,40,19.40
2014,09,17,13,41,19.40
2014,09,17,13,42,19.40
2014,09,17,13,43,19.40
2014,09,17,13,44,19.50
2014,09,17,13,45,19.50
2014,09,17,13,46,19.50
2014,09,17,13,47,19.50
2014,09,17,13,48,19.50
2014,09,17,13,49,19.50
2014,09,17,13,50,19.50
2014,09,17,13,51,19.50
2014,09,17,13,52,19.50
2014,09,17,13,53,19.50
2014,09,17,13,54,19.50
2014,09,17,13,55,19.50
2014,09,17,13,56,19.50
2014,09,17,13,57,19.50
2014,09,17,13,58,19.50
2014,09,17,13,59,19.60
2014,09,17,14,00,19.60
2014,09,17,14,01,19.50
2014,09,17,14,02,19.50
2014,09,17,14,03,19.50
2014,09,17,14,04,19.50
2014,09,17,14,05,19.60
2014,09,17,14,06,19.60
2014,09,17,14,07,19.60
2014,09,17,14,08,19.60
2014,09,17,14,09,19.70
2014,09,17,14,10,19.70
2014,09,17,14,11,19.80
2014,09,17,14,12,19.80
2014,09,17,14,13,19.80
2014,09,17,14,14,19.80
2014,09,17,14,15,19.80
2014,09,17,14,16,19.80
2014,09,17,14,17,19.70
2014,09,17,14,18,19.70
2014,09,17,14,19,19.70
2014,09,17,14,20,19.70
2014,09,17,14,21,19.70
2014,09,17,14,22,19.70
2014,09,17,14,23,19.70
2014,09,17,14,24,19.70
2014,09,17,14,25,19.80
2014,09,17,14,26,19.80
2014,09,17,14,27,19.80
2014,09,17,14,28,19.90
2014,09,17,14,29,19.90
2014,09,17,14,30,19.90
2014,09,17,14,31,19.90
2014,09,17,14,32,19.90
2014,09,17,14,33,20.10
2014,09,17,14,34,20.10
2014,09,17,14,35,20.10
2014,09,17,14,36,20.20
2014,09,17,14,37,20.20
2014,09,17,14,38,20.10
2014,09,17,14,39,20.10
2014,09,17,14,40,20.10
2014,09,17,14,41,19.90
2014,09,17,14,42,19.90
2014,09,17,14,43,19.90
2014,09,17,14,44,19.90
2014,09,17,14,45,19.90
2014,09,17,14,46,19.90
2014,09,17,14,47,19.90
2014,09,17,14,48,19.90
2014,09,17,14,49,19.90
2014,09,17,14,50,20.10
2014,09,17,14,51,20.10
2014,09,17,14,52,20.20
2014,09,17,14,53,20.20
2014,09,17,14,54,20.20
2014,09,17,14,55,20.20
2014,09,17,14,56,20.20
2014,09,17,14,57,20.20
2014,09,17,14,58,20.20
2014,09,17,14,59,20.30
2014,09,17,15,00,20.30
2014,09,17,15,01,20.30
2014,09,17,15,02,20.30
2014,09,17,15,03,20.30
2014,09,17,15,04,20.40
2014,09,17,15,05,20.40
2014,09,17,15,06,20.40
2014,09,17,15,07,20.50
2014,09,17,15,08,20.50
2014,09,17,15,09,20.60
2014,09,17,15,10,20.60
2014,09,17,15,11,20.70
2014,09,17,15,12,20.70
2014,09,17,15,13,20.80
2014,09,17,15,14,20.80
2014,09,17,15,15,20.90
2014,09,17,15,16,20.90
2014,09,17,15,17,20.90
2014,09,17,15,18,20.90
2014,09,17,15,19,20.90
2014,09,17,15,20,20.90
2014,09,17,15,21,20.90
2014,09,17,15,22,20.90
2014,09,17,15,23,21.00
2014,09,17,15,24,21.00
2014,09,17,15,25,21.00
2014,09,17,15,26,21.00
2014,09,17,15,27,20.90
2014,09,17,15,28,21.00
2014,09,17,15,29,21.00
2014,09,17,15,30,21.00
2014,09,17,15,31,21.00
2014,09,17,15,32,21.00
2014,09,17,15,33,21.00
2014,09,17,15,34,21.10
2014,09,17,15,35,21.10
2014,09,17,15,36,21.10
2014,09,17,15,37,21.10
2014,09,17,15,38,21.10
2014,09,17,15,39,21.10
2014,09,17,15,40,21.10
2014,09,17,15,41,21.00
2014,09,17,15,42,21.00
2014,09,17,15,43,21.00
2014,09,17,15,44,21.10
2014,09,17,15,45,21.10
2014,09,17,15,46,21.10
2014,09,17,15,47,21.10
2014,09,17,15,48,21.20
2014,09,17,15,49,21.20
2014,09,17,15,50,21.20
2014,09,17,15,51,21.30
2014,09,17,15,52,21.30
2014,09,17,15,53,21.30
2014,09,17,15,54,21.30
2014,09,17,15,55,21.30
2014,09,17,15,56,21.30
2014,09,17,15,57,21.20
2014,09,17,15,58,21.20
2014,09,17,15,59,21.20
2014,09,17,16,00,21.10
2014,09,17,16,01,21.10
2014,09,17,16,02,21.10
2014,09,17,16,03,21.10
2014,09,17,16,04,21.10
2014,09,17,16,05,21.10
2014,09,17,16,06,21.10
2014,09,17,16,07,21.10
2014,09,17,16,08,21.10
2014,09,17,16,09,21.20
2014,09,17,16,10,21.20
2014,09,17,16,11,21.20
2014,09,17,16,12,21.20
2014,09,17,16,13,21.20
2014,09,17,16,14,21.20
2014,09,17,16,15,21.20
2014,09,17,16,16,21.30
2014,09,17,16,17,21.30
2014,09,17,16,18,21.30
2014,09,17,16,19,21.30
2014,09,17,16,20,21.30
2014,09,17,16,21,21.30
2014,09,17,16,22,21.30
2014,09,17,16,23,21.30
2014,09,17,16,24,21.20
2014,09,17,16,25,21.20
2014,09,17,16,26,21.20
2014,09,17,16,27,21.20
2014,09,17,16,28,21.10
2014,09,17,16,29,21.10
2014,09,17,16,30,21.10
2014,09,17,16,31,21.10
2014,09,17,16,32,21.10
2014,09,17,16,33,21.10
2014,09,17,16,34,21.10
2014,09,17,16,35,21.00
2014,09,17,16,36,21.00
2014,09,17,16,37,21.00
2014,09,17,16,38,21.00
2014,09,17,16,39,21.00
2014,09,17,16,40,21.00
2014,09,17,16,41,21.00
2014,09,17,16,42,21.00
2014,09,17,16,43,21.00
2014,09,17,16,44,21.00
2014,09,17,16,45,21.00
2014,09,17,16,46,21.00
2014,09,17,16,47,21.00
2014,09,17,16,48,21.00
2014,09,17,16,49,21.00
2014,09,17,16,50,21.00
2014,09,17,16,51,20.90
2014,09,17,16,52,20.90
2014,09,17,16,53,20.90
2014,09,17,16,54,20.90
2014,09,17,16,55,20.90
2014,09,17,16,56,20.90
2014,09,17,16,57,20.90
2014,09,17,16,58,20.90
2014,09,17,16,59,20.80
2014,09,17,17,00,20.80
2014,09,17,17,01,20.80
2014,09,17,17,02,20.70
2014,09,17,17,03,20.70
2014,09,17,17,04,20.70
2014,09,17,17,05,20.60
2014,09,17,17,06,20.60
2014,09,17,17,07,20.60
2014,09,17,17,08,20.50
2014,09,17,17,09,20.50
2014,09,17,17,10,20.40
2014,09,17,17,11,20.40
2014,09,17,17,12,20.40
2014,09,17,17,13,20.40
2014,09,17,17,14,20.40
2014,09,17,17,15,20.30
2014,09,17,17,16,20.30
2014,09,17,17,17,20.30
2014,09,17,17,18,20.30
2014,09,17,17,19,20.30
2014,09,17,17,20,20.30
2014,09,17,17,21,20.20
2014,09,17,17,22,20.20
2014,09,17,17,23,20.20
2014,09,17,17,24,20.20
2014,09,17,17,25,20.20
2014,09,17,17,26,20.20
2014,09,17,17,27,20.20
2014,09,17,17,28,20.20
2014,09,17,17,29,20.20
2014,09,17,17,30,20.20
2014,09,17,17,31,20.20
2014,09,17,17,32,20.20
2014,09,17,17,33,20.20
2014,09,17,17,34,20.10
2014,09,17,17,35,20.10
2014,09,17,17,36,20.10
2014,09,17,17,37,20.10
2014,09,17,17,38,20.10
2014,09,17,17,39,20.10
2014,09,17,17,40,20.10
2014,09,17,17,41,20.10
2014,09,17,17,42,20.10
2014,09,17,17,43,20.10
2014,09,17,17,44,20.10
2014,09,17,17,45,20.10
2014,09,17,17,46,20.10
